QPF
0.00 0.00 0.01 0.01 0.02 0.04 0.06 0.08 0.09 0.10 0.08 0.05 0.03 0.02 0.02 0.02 0.02 0.02 0.03 0.05 0.03 0.03 0.03 0.03 0.03 0.03 0.03 0.03 0.03 0.03 0.03 0.03 0.03 0.02 0.03 0.03 0.02 0.02 0.01 0.02 0.02 0.04 0.05
0.00 0.00 0.00 0.01 0.01 0.02 0.03 0.04 0.06 0.09 0.10 0.07 0.05 0.03 0.02 0.02 0.02 0.02 0.03 0.04 0.03 0.03 0.02 0.03 0.03 0.03 0.04 0.05 0.05 0.05 0.05 0.04 0.03 0.02 0.02 0.03 0.03 0.03 0.02 0.02 0.02 0.01 0.03
0.01 0.01 0.01 0.01 0.01 0.03 0.03 0.02 0.03 0.04 0.07 0.09 0.07 0.04 0.03 0.02 0.02 0.02 0.02 0.02 0.02 0.02 0.02 0.02 0.04 0.04 0.06 0.05 0.04 0.03 0.03 0.02 0.02 0.01 0.01 0.02 0.04 0.05 0.05 0.04 0.03 0.02 0.02
0.02 0.02 0.01 0.01 0.01 0.02 0.03 0.03 0.02 0.03 0.03 0.04 0.06 0.06 0.05 0.03 0.02 0.03 0.02 0.02 0.02 0.01 0.01 0.02 0.02 0.01 0.02 0.02 0.02 0.01 0.02 0.02 0.02 0.01 0.01 0.01 0.02 0.03 0.03 0.04 0.03 0.02 0.02
0.04 0.03 0.01 0.01 0.01 0.02 0.03 0.04 0.05 0.06 0.05 0.05 0.05 0.05 0.05 0.04 0.03 0.04 0.03 0.03 0.02 0.02 0.01 0.01 0.01 0.01 0.02 0.02 0.02 0.02 0.02 0.01 0.01 0.01 0.01 0.01 0.01 0.02 0.02 0.03 0.02 0.02 0.03
0.06 0.05 0.04 0.03 0.02 0.02 0.02 0.03 0.05 0.06 0.06 0.07 0.07 0.05 0.04 0.03 0.04 0.04 0.03 0.03 0.02 0.02 0.01 0.01 0.01 0.01 0.02 0.02 0.02 0.02 0.01 0.01 0.01 0.01 0.01 0.01 0.01 0.01 0.02 0.04 0.03 0.03 0.02
0.06 0.05 0.05 0.03 0.02 0.02 0.02 0.03 0.03 0.03 0.04 0.05 0.05 0.06 0.06 0.06 0.06 0.05 0.04 0.03 0.02 0.02 0.02 0.02 0.02 0.02 0.02 0.02 0.02 0.01 0.01 0.00 0.00 0.01 0.01 0.00 0.00 0.01 0.02 0.03 0.04 0.04 0.02
0.04 0.05 0.05 0.04 0.04 0.04 0.04 0.03 0.02 0.02 0.03 0.04 0.06 0.06 0.06 0.06 0.06 0.04 0.03 0.03 0.02 0.02 0.01 0.01 0.01 0.01 0.01 0.03 0.02 0.01 0.01 0.00 0.00 0.01 0.00 0.00 0.00 0.01 0.01 0.03 0.03 0.04 0.04
0.03 0.03 0.03 0.04 0.04 0.04 0.04 0.04 0.03 0.03 0.04 0.04 0.05 0.05 0.05 0.04 0.04 0.04 0.03 0.02 0.02 0.02 0.02 0.01 0.01 0.01 0.02 0.04 0.03 0.02 0.01 0.00 0.00 0.01 0.01 0.01 0.00 0.01 0.01 0.02 0.02 0.03 0.02
0.04 0.03 0.03 0.03 0.03 0.04 0.04 0.04 0.05 0.06 0.08 0.09 0.09 0.09 0.06 0.04 0.04 0.03 0.03 0.03 0.03 0.02 0.02 0.03 0.04 0.03 0.04 0.04 0.04 0.03 0.01 0.01 0.01 0.01 0.01 0.00 0.00 0.01 0.01 0.01 0.02 0.02 0.01
0.06 0.05 0.04 0.03 0.03 0.03 0.04 0.06 0.09 0.12 0.14 0.14 0.13 0.12 0.08 0.05 0.03 0.03 0.02 0.02 0.02 0.02 0.02 0.02 0.03 0.04 0.05 0.06 0.05 0.04 0.03 0.02 0.02 0.01 0.01 0.01 0.01 0.01 0.02 0.02 0.02 0.02 0.02
0.06 0.05 0.03 0.04 0.05 0.06 0.08 0.09 0.12 0.16 0.21 0.21 0.15 0.09 0.06 0.05 0.04 0.04 0.02 0.01 0.01 0.02 0.03 0.02 0.03 0.04 0.04 0.04 0.04 0.04 0.04 0.03 0.03 0.02 0.01 0.01 0.01 0.02 0.02 0.02 0.03 0.03 0.03
0.04 0.03 0.04 0.06 0.07 0.08 0.12 0.15 0.19 0.22 0.21 0.19 0.11 0.08 0.06 0.05 0.04 0.03 0.02 0.01 0.01 0.02 0.03 0.04 0.04 0.05 0.05 0.05 0.04 0.03 0.03 0.03 0.03 0.03 0.02 0.01 0.01 0.01 0.01 0.02 0.03 0.04 0.03
0.04 0.04 0.05 0.08 0.10 0.12 0.17 0.20 0.21 0.20 0.16 0.13 0.11 0.09 0.06 0.05 0.04 0.03 0.03 0.02 0.01 0.01 0.01 0.02 0.03 0.03 0.04 0.05 0.06 0.06 0.05 0.03 0.03 0.02 0.02 0.01 0.01 0.01 0.01 0.02 0.02 0.02 0.03
0.03 0.03 0.06 0.09 0.12 0.14 0.13 0.13 0.12 0.11 0.09 0.07 0.06 0.05 0.04 0.03 0.03 0.03 0.03 0.02 0.01 0.01 0.01 0.01 0.01 0.01 0.02 0.02 0.03 0.04 0.04 0.03 0.03 0.03 0.02 0.02 0.01 0.01 0.02 0.02 0.02 0.02 0.02
0.03 0.04 0.04 0.05 0.07 0.09 0.09 0.08 0.08 0.06 0.06 0.05 0.04 0.04 0.02 0.02 0.02 0.02 0.02 0.02 0.02 0.01 0.01 0.01 0.01 0.01 0.01 0.01 0.01 0.02 0.02 0.02 0.02 0.02 0.02 0.02 0.01 0.02 0.02 0.02 0.02 0.02 0.01
0.03 0.03 0.04 0.04 0.05 0.07 0.09 0.08 0.06 0.04 0.04 0.04 0.04 0.03 0.02 0.02 0.01 0.01 0.01 0.01 0.01 0.01 0.00 0.00 0.00 0.00 0.01 0.01 0.01 0.01 0.01 0.02 0.02 0.02 0.02 0.02 0.01 0.02 0.02 0.01 0.02 0.02 0.02
0.03 0.03 0.03 0.03 0.03 0.05 0.05 0.03 0.02 0.02 0.02 0.02 0.02 0.01 0.01 0.02 0.02 0.01 0.01 0.00 0.00 0.00 0.01 0.01 0.01 0.01 0.01 0.00 0.01 0.01 0.01 0.01 0.02 0.02 0.02 0.02 0.02 0.02 0.02 0.01 0.01 0.01 0.01
0.03 0.03 0.03 0.03 0.03 0.02 0.01 0.01 0.01 0.01 0.01 0.02 0.02 0.02 0.02 0.02 0.01 0.01 0.01 0.00 0.00 0.00 0.01 0.01 0.01 0.01 0.00 0.00 0.00 0.01 0.01 0.01 0.02 0.02 0.02 0.03 0.03 0.03 0.03 0.02 0.01 0.01 0.01
0.03 0.04 0.04 0.04 0.04 0.03 0.03 0.02 0.01 0.01 0.01 0.01 0.02 0.02 0.02 0.02 0.01 0.00 0.00 0.00 0.01 0.01 0.01 0.01 0.01 0.01 0.01 0.01 0.01 0.01 0.01 0.02 0.03 0.03 0.03 0.03 0.03 0.03 0.03 0.02 0.02 0.02 0.02
0.05 0.06 0.06 0.06 0.06 0.05 0.04 0.02 0.02 0.02 0.02 0.02 0.01 0.01 0.02 0.02 0.01 0.01 0.01 0.02 0.02 0.02 0.01 0.01 0.01 0.01 0.01 0.02 0.02 0.02 0.03 0.03 0.03 0.04 0.04 0.04 0.03 0.03 0.03 0.02 0.02 0.03 0.03
0.05 0.04 0.04 0.05 0.05 0.04 0.03 0.03 0.02 0.02 0.02 0.01 0.01 0.01 0.01 0.02 0.02 0.02 0.02 0.02 0.02 0.01 0.01 0.01 0.01 0.01 0.01 0.02 0.02 0.03 0.03 0.03 0.03 0.03 0.04 0.04 0.03 0.02 0.02 0.02 0.02 0.02 0.03
0.07 0.06 0.05 0.05 0.05 0.04 0.03 0.02 0.02 0.02 0.02 0.02 0.01 0.00 0.00 0.01 0.01 0.02 0.02 0.02 0.01 0.01 0.01 0.01 0.01 0.01 0.02 0.02 0.02 0.02 0.03 0.03 0.03 0.03 0.04 0.04 0.03 0.02 0.02 0.02 0.02 0.02 0.03
0.08 0.08 0.07 0.06 0.05 0.04 0.03 0.02 0.02 0.02 0.02 0.03 0.02 0.02 0.01 0.01 0.01 0.02 0.02 0.02 0.01 0.02 0.01 0.01 0.02 0.02 0.02 0.01 0.01 0.01 0.01 0.02 0.02 0.03 0.04 0.04 0.04 0.03 0.03 0.03 0.02 0.02 0.03
0.06 0.05 0.05 0.05 0.05 0.03 0.03 0.02 0.02 0.01 0.01 0.01 0.02 0.02 0.01 0.02 0.02 0.02 0.02 0.02 0.02 0.02 0.02 0.01 0.01 0.01 0.01 0.01 0.01 0.01 0.02 0.02 0.03 0.05 0.05 0.04 0.03 0.02 0.02 0.02 0.02 0.02 0.02
0.02 0.02 0.02 0.03 0.03 0.03 0.03 0.03 0.02 0.01 0.01 0.01 0.01 0.01 0.02 0.02 0.02 0.02 0.02 0.02 0.02 0.01 0.01 0.01 0.01 0.01 0.01 0.01 0.01 0.01 0.02 0.03 0.04 0.04 0.03 0.03 0.02 0.01 0.01 0.01 0.01 0.02 0.02
MSLP
1011.96 1012.36 1012.74 1013.06 1013.30 1013.45 1013.52 1013.54 1013.56 1013.60 1013.68 1013.80 1013.95 1014.10 1014.23 1014.32 1014.36 1014.36 1014.34 1014.32 1014.33 1014.39 1014.52 1014.71 1014.97 1015.28 1015.63 1016.03 1016.47 1016.97 1017.51 1018.11 1018.75 1019.41 1020.04 1020.62 1021.10 1021.47 1021.69 1021.80 1021.80 1021.72 1021.62
1011.93 1012.34 1012.73 1013.06 1013.32 1013.49 1013.60 1013.66 1013.71 1013.77 1013.86 1013.96 1014.08 1014.20 1014.29 1014.34 1014.36 1014.34 1014.31 1014.30 1014.31 1014.38 1014.50 1014.68 1014.91 1015.18 1015.49 1015.86 1016.27 1016.75 1017.30 1017.92 1018.59 1019.31 1020.01 1020.67 1021.24 1021.69 1022.00 1022.17 1022.22 1022.18 1022.10
1011.88 1012.31 1012.71 1013.06 1013.33 1013.53 1013.67 1013.77 1013.85 1013.94 1014.03 1014.14 1014.24 1014.33 1014.39 1014.41 1014.40 1014.38 1014.35 1014.34 1014.37 1014.44 1014.57 1014.75 1014.97 1015.22 1015.51 1015.85 1016.24 1016.70 1017.24 1017.87 1018.56 1019.30 1020.05 1020.76 1021.39 1021.90 1022.27 1022.49 1022.59 1022.58 1022.51
1011.80 1012.26 1012.68 1013.04 1013.33 1013.55 1013.72 1013.85 1013.97 1014.08 1014.19 1014.31 1014.41 1014.48 1014.52 1014.53 1014.51 1014.48 1014.46 1014.46 1014.51 1014.60 1014.74 1014.92 1015.14 1015.38 1015.66 1015.97 1016.34 1016.78 1017.31 1017.92 1018.62 1019.37 1020.13 1020.86 1021.52 1022.06 1022.47 1022.73 1022.85 1022.88 1022.82
1011.66 1012.16 1012.61 1013.00 1013.30 1013.55 1013.74 1013.90 1014.05 1014.19 1014.33 1014.46 1014.57 1014.65 1014.70 1014.71 1014.70 1014.67 1014.66 1014.68 1014.74 1014.85 1015.01 1015.19 1015.41 1015.65 1015.91 1016.20 1016.55 1016.96 1017.46 1018.05 1018.71 1019.44 1020.19 1020.92 1021.57 1022.12 1022.54 1022.82 1022.97 1023.02 1022.98
1011.47 1012.02 1012.50 1012.91 1013.23 1013.50 1013.71 1013.90 1014.09 1014.26 1014.44 1014.60 1014.74 1014.84 1014.91 1014.94 1014.95 1014.95 1014.96 1015.00 1015.08 1015.20 1015.37 1015.56 1015.77 1016.00 1016.24 1016.51 1016.82 1017.20 1017.65 1018.20 1018.82 1019.50 1020.21 1020.90 1021.53 1022.06 1022.48 1022.76 1022.93 1022.99 1022.98
1011.20 1011.81 1012.33 1012.77 1013.12 1013.41 1013.65 1013.87 1014.09 1014.31 1014.53 1014.73 1014.91 1015.05 1015.15 1015.21 1015.25 1015.28 1015.32 1015.39 1015.49 1015.63 1015.81 1016.00 1016.21 1016.42 1016.64 1016.87 1017.15 1017.47 1017.87 1018.36 1018.91 1019.53 1020.17 1020.81 1021.39 1021.89 1022.28 1022.55 1022.72 1022.80 1022.82
1010.87 1011.53 1012.10 1012.57 1012.96 1013.28 1013.56 1013.82 1014.08 1014.35 1014.61 1014.86 1015.08 1015.26 1015.40 1015.51 1015.58 1015.65 1015.72 1015.82 1015.95 1016.11 1016.30 1016.50 1016.70 1016.89 1017.08 1017.29 1017.51 1017.78 1018.12 1018.53 1019.01 1019.55 1020.11 1020.67 1021.19 1021.64 1022.00 1022.25 1022.42 1022.51 1022.54
1010.48 1011.20 1011.82 1012.33 1012.76 1013.13 1013.46 1013.77 1014.08 1014.40 1014.71 1015.00 1015.26 1015.47 1015.65 1015.79 1015.90 1016.00 1016.11 1016.25 1016.41 1016.60 1016.80 1017.01 1017.21 1017.40 1017.57 1017.73 1017.92 1018.13 1018.40 1018.73 1019.13 1019.58 1020.07 1020.55 1021.00 1021.39 1021.71 1021.94 1022.09 1022.18 1022.24
1010.07 1010.83 1011.48 1012.05 1012.53 1012.96 1013.35 1013.72 1014.09 1014.46 1014.81 1015.13 1015.42 1015.66 1015.86 1016.02 1016.16 1016.29 1016.44 1016.61 1016.81 1017.03 1017.27 1017.50 1017.71 1017.90 1018.06 1018.21 1018.35 1018.52 1018.73 1018.99 1019.31 1019.69 1020.09 1020.50 1020.88 1021.22 1021.49 1021.69 1021.82 1021.91 1021.97
1009.66 1010.42 1011.10 1011.71 1012.25 1012.74 1013.21 1013.66 1014.09 1014.51 1014.90 1015.25 1015.56 1015.81 1016.01 1016.18 1016.33 1016.49 1016.67 1016.88 1017.12 1017.38 1017.66 1017.92 1018.16 1018.37 1018.54 1018.67 1018.80 1018.93 1019.09 1019.30 1019.56 1019.87 1020.20 1020.55 1020.88 1021.17 1021.40 1021.57 1021.69 1021.76 1021.81
1009.24 1009.97 1010.66 1011.29 1011.89 1012.46 1013.00 1013.53 1014.04 1014.51 1014.94 1015.32 1015.63 1015.88 1016.08 1016.25 1016.41 1016.58 1016.78 1017.03 1017.31 1017.63 1017.95 1018.26 1018.55 1018.78 1018.97 1019.11 1019.23 1019.34 1019.48 1019.65 1019.86 1020.12 1020.41 1020.71 1021.00 1021.25 1021.46 1021.60 1021.70 1021.75 1021.78
1008.82 1009.48 1010.14 1010.79 1011.43 1012.06 1012.69 1013.30 1013.88 1014.42 1014.89 1015.29 1015.61 1015.86 1016.05 1016.21 1016.38 1016.56 1016.79 1017.07 1017.40 1017.77 1018.15 1018.51 1018.84 1019.12 1019.33 1019.49 1019.62 1019.72 1019.84 1019.99 1020.17 1020.40 1020.66 1020.94 1021.21 1021.44 1021.63 1021.76 1021.83 1021.87 1021.88
1008.37 1008.93 1009.52 1010.16 1010.83 1011.52 1012.22 1012.92 1013.58 1014.18 1014.70 1015.13 1015.47 1015.73 1015.92 1016.09 1016.26 1016.47 1016.72 1017.04 1017.42 1017.83 1018.27 1018.68 1019.05 1019.37 1019.61 1019.79 1019.92 1020.03 1020.14 1020.27 1020.45 1020.66 1020.91 1021.17 1021.43 1021.66 1021.85 1021.97 1022.04 1022.05 1022.03
1007.90 1008.31 1008.81 1009.41 1010.08 1010.81 1011.58 1012.35 1013.09 1013.76 1014.35 1014.83 1015.20 1015.49 1015.71 1015.90 1016.09 1016.32 1016.61 1016.97 1017.39 1017.85 1018.32 1018.78 1019.19 1019.53 1019.80 1019.99 1020.12 1020.23 1020.34 1020.46 1020.63 1020.83 1021.08 1021.34 1021.60 1021.84 1022.03 1022.16 1022.22 1022.23 1022.19
1007.40 1007.65 1008.03 1008.56 1009.20 1009.95 1010.76 1011.60 1012.41 1013.16 1013.82 1014.37 1014.81 1015.14 1015.41 1015.65 1015.89 1016.16 1016.49 1016.89 1017.34 1017.84 1018.34 1018.82 1019.25 1019.60 1019.87 1020.07 1020.20 1020.31 1020.40 1020.52 1020.67 1020.87 1021.11 1021.38 1021.65 1021.89 1022.09 1022.24 1022.31 1022.32 1022.28
1006.89 1006.97 1007.22 1007.65 1008.25 1008.99 1009.83 1010.71 1011.58 1012.41 1013.15 1013.78 1014.30 1014.71 1015.06 1015.36 1015.66 1015.99 1016.36 1016.80 1017.28 1017.80 1018.31 1018.80 1019.23 1019.58 1019.85 1020.04 1020.16 1020.25 1020.33 1020.43 1020.57 1020.76 1021.00 1021.26 1021.53 1021.79 1022.00 1022.16 1022.25 1022.28 1022.25
1006.39 1006.31 1006.43 1006.76 1007.30 1008.01 1008.84 1009.75 1010.67 1011.56 1012.38 1013.09 1013.70 1014.21 1014.64 1015.03 1015.40 1015.79 1016.21 1016.68 1017.19 1017.71 1018.23 1018.71 1019.12 1019.46 1019.71 1019.88 1019.99 1020.07 1020.14 1020.22 1020.35 1020.52 1020.74 1021.00 1021.27 1021.53 1021.75 1021.93 1022.05 1022.10 1022.10
1005.92 1005.70 1005.71 1005.94 1006.41 1007.07 1007.88 1008.79 1009.74 1010.67 1011.56 1012.35 1013.05 1013.65 1014.17 1014.65 1015.09 1015.54 1016.01 1016.50 1017.02 1017.54 1018.04 1018.50 1018.90 1019.22 1019.46 1019.61 1019.72 1019.78 1019.84 1019.92 1020.03 1020.19 1020.39 1020.63 1020.89 1021.15 1021.38 1021.57 1021.71 1021.80 1021.84
1005.50 1005.18 1005.09 1005.24 1005.63 1006.23 1007.01 1007.90 1008.85 1009.81 1010.74 1011.60 1012.37 1013.05 1013.66 1014.20 1014.71 1015.21 1015.71 1016.22 1016.73 1017.24 1017.72 1018.15 1018.53 1018.84 1019.07 1019.23 1019.34 1019.41 1019.48 1019.56 1019.66 1019.81 1020.00 1020.22 1020.46 1020.71 1020.94 1021.14 1021.31 1021.43 1021.52
1005.10 1004.74 1004.59 1004.67 1005.00 1005.54 1006.26 1007.11 1008.05 1009.01 1009.96 1010.86 1011.68 1012.42 1013.08 1013.69 1014.25 1014.77 1015.29 1015.79 1016.29 1016.77 1017.23 1017.65 1018.01 1018.31 1018.55 1018.73 1018.87 1018.97 1019.07 1019.17 1019.29 1019.44 1019.62 1019.82 1020.05 1020.28 1020.50 1020.70 1020.88 1021.04 1021.17
1004.73 1004.35 1004.18 1004.22 1004.49 1004.98 1005.64 1006.45 1007.35 1008.29 1009.23 1010.14 1010.99 1011.76 1012.46 1013.10 1013.68 1014.22 1014.73 1015.22 1015.69 1016.15 1016.58 1016.98 1017.34 1017.65 1017.92 1018.14 1018.33 1018.49 1018.63 1018.77 1018.93 1019.09 1019.27 1019.47 1019.68 1019.89 1020.10 1020.30 1020.49 1020.67 1020.84
1004.35 1004.00 1003.82 1003.85 1004.08 1004.52 1005.13 1005.88 1006.73 1007.63 1008.55 1009.44 1010.29 1011.07 1011.79 1012.43 1013.02 1013.55 1014.04 1014.51 1014.96 1015.39 1015.79 1016.19 1016.55 1016.89 1017.20 1017.48 1017.73 1017.97 1018.18 1018.39 1018.59 1018.79 1018.99 1019.19 1019.38 1019.58 1019.78 1019.97 1020.16 1020.36 1020.55
1003.95 1003.64 1003.48 1003.51 1003.71 1004.10 1004.66 1005.35 1006.14 1006.99 1007.87 1008.74 1009.57 1010.35 1011.05 1011.70 1012.27 1012.79 1013.27 1013.71 1014.13 1014.53 1014.93 1015.32 1015.70 1016.07 1016.43 1016.78 1017.11 1017.43 1017.72 1018.00 1018.27 1018.51 1018.74 1018.95 1019.15 1019.34 1019.52 1019.71 1019.90 1020.10 1020.31
1003.52 1003.26 1003.12 1003.14 1003.32 1003.67 1004.17 1004.80 1005.53 1006.32 1007.15 1007.98 1008.79 1009.55 1010.25 1010.89 1011.46 1011.97 1012.43 1012.86 1013.26 1013.65 1014.04 1014.44 1014.84 1015.25 1015.66 1016.07 1016.48 1016.88 1017.26 1017.61 1017.94 1018.23 1018.50 1018.73 1018.94 1019.13 1019.31 1019.50 1019.69 1019.89 1020.11
1003.07 1002.84 1002.72 1002.72 1002.88 1003.18 1003.61 1004.17 1004.83 1005.57 1006.35 1007.14 1007.92 1008.66 1009.36 1009.99 1010.57 1011.08 1011.55 1011.98 1012.38 1012.78 1013.18 1013.58 1014.01 1014.45 1014.91 1015.38 1015.86 1016.32 1016.77 1017.19 1017.58 1017.92 1018.23 1018.49 1018.72 1018.93 1019.12 1019.30 1019.50 1019.70 1019.93
Thickness
5774 5770 5767 5763 5760 5757 5754 5751 5749 5746 5743 5741 5739 5737 5734 5732 5731 5729 5728 5727 5726 5724 5724 5723 5721 5721 5719 5719 5719 5717 5716 5713 5707 5708 5710 5712 5713 5712 5713 5713 5713 5712 5712
5771 5767 5763 5759 5756 5753 5750 5748 5745 5742 5739 5737 5734 5731 5729 5727 5725 5723 5722 5721 5720 5718 5717 5716 5715 5715 5713 5713 5712 5710 5709 5709 5705 5701 5702 5704 5705 5706 5706 5706 5707 5707 5706
5767 5762 5758 5755 5752 5749 5746 5743 5740 5737 5734 5732 5729 5726 5723 5722 5720 5718 5717 5715 5714 5713 5712 5710 5709 5708 5706 5705 5704 5703 5703 5703 5700 5697 5695 5696 5697 5699 5698 5699 5700 5700 5700
5762 5758 5753 5750 5748 5745 5742 5739 5736 5733 5729 5726 5723 5720 5718 5717 5715 5713 5711 5709 5708 5707 5706 5705 5704 5702 5700 5699 5699 5697 5696 5693 5691 5689 5688 5688 5689 5691 5691 5690 5690 5691 5691
5757 5753 5750 5747 5745 5741 5738 5734 5731 5727 5724 5721 5717 5715 5713 5712 5710 5708 5705 5704 5701 5700 5700 5699 5699 5698 5697 5695 5693 5690 5689 5686 5683 5681 5679 5679 5680 5680 5681 5682 5682 5682 5684
5752 5748 5745 5742 5739 5736 5733 5729 5725 5721 5718 5714 5711 5709 5707 5706 5705 5704 5701 5697 5695 5693 5692 5691 5691 5691 5690 5689 5688 5686 5684 5680 5676 5674 5672 5671 5672 5673 5675 5676 5674 5672 5672
5747 5743 5739 5736 5733 5731 5728 5723 5719 5715 5712 5707 5704 5702 5699 5699 5698 5697 5695 5691 5689 5687 5685 5683 5684 5683 5682 5680 5679 5679 5677 5677 5675 5671 5668 5667 5667 5668 5667 5667 5667 5666 5667
5741 5738 5735 5731 5727 5724 5720 5716 5713 5709 5705 5702 5698 5695 5692 5692 5691 5690 5688 5684 5682 5680 5678 5677 5675 5674 5674 5672 5671 5669 5667 5667 5667 5666 5665 5664 5664 5664 5663 5662 5661 5661 5662
5735 5731 5729 5725 5721 5717 5713 5710 5707 5703 5699 5695 5692 5689 5685 5684 5684 5682 5680 5676 5673 5672 5671 5669 5668 5666 5666 5665 5662 5659 5658 5659 5660 5660 5660 5660 5659 5659 5658 5655 5653 5651 5651
5728 5726 5723 5719 5715 5711 5708 5704 5701 5697 5693 5689 5685 5682 5679 5677 5676 5675 5674 5670 5666 5663 5662 5661 5661 5659 5658 5656 5653 5650 5649 5649 5649 5650 5651 5651 5651 5651 5651 5649 5647 5644 5642
5722 5719 5715 5712 5708 5705 5701 5697 5692 5688 5684 5681 5677 5674 5672 5670 5669 5668 5666 5662 5659 5655 5654 5652 5651 5651 5650 5648 5646 5643 5643 5642 5641 5640 5640 5640 5641 5642 5642 5642 5642 5640 5637
5713 5709 5706 5703 5701 5697 5692 5688 5684 5680 5675 5672 5668 5665 5663 5662 5661 5660 5658 5655 5652 5648 5645 5644 5644 5643 5642 5641 5638 5637 5637 5635 5632 5631 5630 5630 5631 5632 5634 5635 5635 5635 5635
5702 5698 5695 5693 5690 5688 5684 5680 5675 5672 5667 5663 5660 5657 5654 5653 5653 5652 5649 5647 5644 5640 5638 5638 5637 5635 5634 5632 5631 5630 5628 5625 5624 5622 5622 5623 5624 5626 5627 5627 5628 5627 5627
5691 5687 5685 5682 5679 5677 5674 5671 5667 5663 5659 5656 5653 5649 5647 5644 5643 5641 5639 5637 5635 5633 5630 5629 5628 5627 5625 5624 5623 5620 5619 5618 5616 5615 5616 5617 5618 5618 5618 5618 5617 5617 5616
5681 5678 5675 5672 5669 5666 5663 5661 5658 5656 5654 5650 5647 5643 5639 5636 5635 5634 5631 5628 5626 5623 5620 5618 5617 5615 5614 5613 5612 5611 5610 5610 5609 5608 5608 5609 5609 5610 5610 5610 5609 5608 5606
5672 5668 5666 5663 5660 5657 5654 5651 5650 5649 5647 5644 5640 5637 5634 5631 5628 5626 5623 5621 5619 5616 5612 5608 5606 5605 5604 5603 5602 5601 5601 5601 5600 5600 5600 5600 5601 5601 5601 5602 5601 5599 5598
5664 5660 5658 5655 5652 5649 5646 5642 5638 5637 5637 5634 5631 5629 5626 5623 5620 5617 5615 5612 5610 5607 5603 5600 5598 5597 5595 5594 5594 5593 5593 5593 5592 5592 5591 5591 5592 5592 5592 5592 5592 5591 5590
5656 5654 5651 5648 5644 5641 5638 5634 5631 5627 5624 5622 5621 5620 5618 5615 5612 5609 5606 5603 5599 5597 5594 5593 5591 5590 5588 5586 5585 5585 5584 5583 5583 5582 5582 5582 5582 5582 5582 5582 5582 5582 5582
5647 5645 5643 5640 5637 5634 5631 5627 5624 5620 5616 5613 5611 5610 5609 5606 5604 5601 5597 5593 5591 5589 5587 5586 5585 5583 5581 5579 5578 5576 5575 5574 5574 5573 5573 5572 5572 5572 5572 5573 5573 5573 5573
5640 5639 5636 5632 5629 5626 5623 5619 5616 5612 5609 5605 5603 5601 5598 5596 5592 5590 5588 5585 5583 5581 5580 5578 5577 5575 5573 5571 5570 5568 5567 5566 5565 5564 5564 5564 5563 5563 5563 5563 5563 5563 5564
5632 5630 5629 5625 5621 5618 5615 5611 5608 5605 5601 5598 5596 5594 5591 5587 5585 5583 5580 5578 5576 5575 5573 5572 5570 5568 5566 5564 5562 5561 5559 5558 5557 5556 5555 5555 5555 5554 5555 5555 5555 5556 5557
5624 5622 5619 5617 5614 5611 5608 5605 5602 5598 5596 5592 5589 5587 5584 5580 5578 5575 5573 5571 5570 5568 5566 5564 5562 5560 5558 5557 5555 5553 5552 5550 5550 5548 5548 5548 5547 5548 5548 5548 5549 5549 5550
5617 5614 5612 5610 5607 5605 5601 5597 5594 5592 5589 5586 5583 5580 5577 5574 5571 5569 5567 5565 5563 5561 5559 5557 5555 5552 5551 5550 5548 5547 5545 5544 5543 5542 5541 5541 5541 5541 5541 5542 5543 5543 5543
5610 5608 5605 5602 5599 5596 5593 5590 5587 5585 5582 5580 5577 5574 5571 5568 5566 5563 5561 5559 5556 5554 5552 5550 5548 5546 5544 5542 5541 5539 5538 5537 5536 5535 5535 5534 5534 5535 5535 5536 5536 5537 5538
5603 5601 5598 5595 5592 5589 5586 5583 5580 5578 5575 5573 5570 5567 5564 5562 5559 5557 5555 5552 5550 5547 5545 5543 5541 5539 5537 5535 5534 5533 5531 5530 5529 5529 5528 5528 5528 5528 5528 5529 5531 5532 5532
5597 5594 5591 5588 5585 5583 5580 5577 5574 5571 5568 5566 5563 5560 5558 5555 5553 5551 5548 5545 5543 5540 5538 5536 5533 5532 5530 5528 5527 5526 5525 5523 5523 5522 5521 5521 5521 5521 5522 5522 5524 5525 5526